GW3348 Weather Reports


time (UTC)temp
C
wind
direction
speed
KPH
gust
KPH
rain 1hr
cm
rain 24hr
cm
rain mn
cm
humidity
%
barometer
mb
20260507003806 15 160 4.8 8.0 0.00 0.00 0.00 71 1018.6
20260507003256 15 260 0.0 3.2 0.00 0.00 0.00 70 1018.3
20260507002752 15 105 1.6 6.4 0.00 0.00 0.00 70 1018.5
20260507002248 15 103 0.0 4.8 0.00 0.00 0.00 70 1018.4
20260507001745 15 316 3.2 8.0 0.00 0.00 0.00 69 1018.0
20260507001242 15 17 3.2 6.4 0.00 0.00 0.00 69 1018.0
20260507000738 15 217 0.0 6.4 0.00 0.00 0.00 68 1018.5
20260507000234 16 187 6.4 8.0 0.00 0.00 0.00 66 1018.5
20260506235731 15 251 0.0 8.0 0.00 0.00 0.00 69 1018.2
20260506235226 15 284 3.2 6.4 0.00 0.00 0.00 69 1018.2
20260506234724 15 326 3.2 11.3 0.00 0.00 0.00 68 1018.3
20260506234221 15 224 0.0 6.4 0.00 0.00 0.00 70 1018.1
20260506233719 15 257 1.6 8.0 0.00 0.00 0.00 68 1018.5
20260506233215 15 140 4.8 14.5 0.00 0.00 0.00 70 1018.3
20260506232711 15 48 0.0 8.0 0.00 0.00 0.00 71 1018.3
20260506232206 15 345 0.0 3.2 0.00 0.00 0.00 70 1018.3
20260506231704 15 113 0.0 3.2 0.00 0.00 0.00 70 1018.4
20260506231203 15 182 0.0 9.7 0.00 0.00 0.00 70 1018.5
20260506230658 15 119 0.0 6.4 0.00 0.00 0.00 70 1018.2
20260506230155 15 345 0.0 4.8 0.00 0.00 0.00 70 1018.4
20260506225652 15 346 4.8 4.8 0.00 0.00 0.00 69 1018.3
20260506225149 15 102 3.2 8.0 0.00 0.00 0.00 68 1018.2
20260506224645 16 328 1.6 4.8 0.00 0.00 0.00 68 1018.4
20260506224142 16 275 8.0 9.7 0.00 0.00 0.00 68 1018.2
20260506223639 16 350 3.2 6.4 0.00 0.00 0.00 69 1018.2
20260506223134 16 287 0.0 16.1 0.00 0.00 0.00 69 1018.3
20260506222632 16 172 1.6 8.0 0.00 0.00 0.00 67 1018.3
20260506222128 15 298 3.2 4.8 0.00 0.00 0.00 71 1018.4
20260506221626 15 256 1.6 6.4 0.00 0.00 0.00 70 1018.5
20260506221123 15 176 0.0 11.3 0.00 0.00 0.00 71 1018.5
20260506220620 15 201 3.2 4.8 0.00 0.00 0.00 71 1018.6
20260506220115 15 284 0.0 4.8 0.00 0.00 0.00 70 1018.7
20260506215612 16 310 0.0 3.2 0.00 0.00 0.00 70 1018.6
20260506215107 15 141 1.6 8.0 0.00 0.00 0.00 69 1018.5
20260506214605 15 315 1.6 6.4 0.00 0.00 0.00 70 1018.6
20260506214102 15 211 3.2 8.0 0.00 0.00 0.00 70 1018.6
20260506213600 15 276 0.0 4.8 0.00 0.00 0.00 70 1018.4
20260506213057 15 269 0.0 9.7 0.00 0.00 0.00 70 1018.4
20260506212554 16 143 0.0 8.0 0.00 0.00 0.00 69 1018.5
20260506212048 15 298 1.6 11.3 0.00 0.00 0.00 72 1018.7
20260506211545 15 138 3.2 8.0 0.00 0.00 0.00 71 1018.5
20260506211042 15 287 0.0 9.7 0.00 0.00 0.00 73 1018.5
20260506210538 15 184 3.2 8.0 0.00 0.00 0.00 72 1018.6
20260506210035 15 229 0.0 14.5 0.00 0.00 0.00 72 1018.5
20260506205532 15 172 1.6 11.3 0.00 0.00 0.00 73 1018.5
20260506205027 15 78 1.6 6.4 0.00 0.00 0.00 75 1018.6
20260506204525 14 322 0.0 4.8 0.00 0.00 0.00 78 1018.7
20260506204022 14 106 0.0 6.4 0.00 0.00 0.00 79 1018.5
20260506203520 14 192 3.2 4.8 0.00 0.00 0.00 79 1018.7
20260506203016 14 65 1.6 3.2 0.00 0.00 0.00 78 1018.5
20260506202514 14 309 0.0 4.8 0.00 0.00 0.00 78 1018.5
20260506202010 14 184 3.2 6.4 0.00 0.00 0.00 79 1018.6
20260506201508 14 191 3.2 8.0 0.00 0.00 0.00 79 1018.4
20260506201004 13 57 1.6 3.2 0.00 0.00 0.00 81 1018.6
20260506200501 13 356 1.6 4.8 0.00 0.00 0.00 82 1018.6
20260506195956 13 308 1.6 8.0 0.00 0.00 0.00 81 1018.4
20260506195454 13 295 1.6 4.8 0.00 0.00 0.00 81 1018.7
20260506194945 13 142 0.0 8.0 0.00 0.00 0.00 82 1018.7
20260506194442 13 125 3.2 9.7 0.00 0.00 0.00 81 1018.6
20260506193939 14 286 3.2 6.4 0.00 0.00 0.00 80 1018.3
20260506193436 14 160 6.4 8.0 0.00 0.00 0.00 79 1018.2
20260506192932 14 216 1.6 8.0 0.00 0.00 0.00 80 1018.4
20260506192429 14 184 4.8 12.9 0.00 0.00 0.00 80 1018.3
20260506191926 14 227 0.0 9.7 0.00 0.00 0.00 80 1018.4
20260506191422 13 198 0.0 14.5 0.00 0.00 0.00 80 1018.3
20260506190919 14 143 6.4 8.0 0.00 0.00 0.00 80 1018.2
20260506190416 14 130 3.2 4.8 0.00 0.00 0.00 81 1018.2
20260506185913 13 302 0.0 4.8 0.00 0.00 0.00 82 1018.4
20260506185410 13 141 1.6 4.8 0.00 0.00 0.00 84 1018.1
20260506184908 13 25 0.0 4.8 0.00 0.00 0.00 83 1018.0
20260506184404 13 309 0.0 3.2 0.00 0.00 0.00 83 1018.3
20260506183902 14 81 0.0 3.2 0.00 0.00 0.00 83 1018.3
20260506183356 13 151 0.0 8.0 0.00 0.00 0.00 83 1018.0
20260506182854 13 215 0.0 4.8 0.00 0.00 0.00 84 1018.2
20260506182351 13 349 0.0 8.0 0.00 0.00 0.00 85 1018.2
20260506181848 13 96 0.0 11.3 0.00 0.00 0.00 83 1017.9
20260506181346 13 148 4.8 11.3 0.00 0.00 0.00 83 1017.9
20260506180843 13 190 3.2 16.1 0.00 0.00 0.00 83 1018.0
20260506180339 13 186 0.0 3.2 0.00 0.00 0.00 85 1018.2
20260506175836 13 97 1.6 6.4 0.00 0.00 0.00 85 1017.9
20260506175332 13 96 0.0 3.2 0.00 0.00 0.00 85 1018.0
20260506174830 13 353 0.0 3.2 0.00 0.00 0.00 85 1018.2
20260506174327 13 102 0.0 4.8 0.00 0.00 0.00 86 1017.9
20260506173824 13 158 0.0 9.7 0.00 0.00 0.00 86 1017.8
20260506173321 13 320 0.0 3.2 0.00 0.00 0.00 86 1017.7
20260506172818 13 10 0.0 3.2 0.00 0.00 0.00 87 1017.7
20260506172315 13 140 0.0 4.8 0.00 0.00 0.00 87 1017.8
20260506171812 13 136 0.0 8.0 0.00 0.00 0.00 86 1017.9
20260506171309 13 141 1.6 8.0 0.00 0.00 0.00 86 1017.9
20260506170807 13 164 1.6 6.4 0.00 0.00 0.00 85 1017.8
20260506170303 13 207 1.6 6.4 0.00 0.00 0.00 84 1018.1
20260506165802 13 148 4.8 9.7 0.00 0.00 0.00 83 1017.9
20260506165259 13 150 1.6 3.2 0.00 0.00 0.00 84 1017.7
20260506164755 13 166 0.0 4.8 0.00 0.00 0.00 85 1017.7
20260506164252 13 134 4.8 9.7 0.00 0.00 0.00 85 1018.1
20260506163749 13 230 0.0 9.7 0.00 0.00 0.00 85 1018.0
20260506163244 13 156 0.0 6.4 0.00 0.00 0.00 84 1018.0
20260506162740 13 109 1.6 4.8 0.00 0.00 0.00 85 1018.2
20260506162238 13 219 0.0 4.8 0.00 0.00 0.00 86 1017.8
20260506161735 13 293 0.0 6.4 0.00 0.00 0.00 87 1017.8
20260506161232 12 183 0.0 4.8 0.00 0.00 0.00 88 1017.8
20260506160724 12 6 0.0 4.8 0.00 0.00 0.00 89 1017.7
20260506160220 12 125 1.6 8.0 0.00 0.00 0.00 89 1017.9
20260506155718 12 155 3.2 4.8 0.00 0.00 0.00 89 1017.5
20260506155215 12 142 1.6 8.0 0.00 0.00 0.00 89 1017.6
20260506153317 12 126 0.0 8.0 0.00 0.00 0.00 89 1017.3
20260506152814 12 144 1.6 8.0 0.00 0.00 0.00 90 1017.4
20260506152311 12 153 0.0 8.0 0.00 0.00 0.00 90 1017.3
20260506151810 12 75 0.0 4.8 0.00 0.00 0.00 90 1017.4
20260506151306 12 164 3.2 4.8 0.00 0.00 0.00 90 1017.3
20260506150803 12 130 0.0 4.8 0.00 0.00 0.00 90 1017.6
20260506150304 12 17 0.0 1.6 0.00 0.00 0.00 90 1017.5
20260506145757 12 28 0.0 3.2 0.00 0.00 0.00 90 1017.7
20260506145253 12 48 0.0 3.2 0.00 0.00 0.00 89 1017.8
20260506144751 12 154 0.0 4.8 0.00 0.00 0.00 89 1017.4
20260506144248 12 147 0.0 6.4 0.00 0.00 0.00 89 1017.3
20260506143745 12 202 0.0 8.0 0.00 0.00 0.00 90 1017.3
20260506143243 12 151 0.0 4.8 0.00 0.00 0.00 90 1017.3
20260506142741 12 134 0.0 4.8 0.00 0.00 0.00 90 1017.5
20260506142239 12 28 0.0 3.2 0.00 0.00 0.00 91 1017.5
20260506141737 12 150 4.8 9.7 0.00 0.00 0.00 91 1017.1
20260506141235 12 119 1.6 4.8 0.00 0.00 0.00 92 1017.2
20260506140732 12 49 1.6 4.8 0.00 0.00 0.00 92 1017.2
20260506140229 11 58 3.2 4.8 0.00 0.00 0.00 93 1017.1
20260506135725 11 97 0.0 3.2 0.00 0.00 0.00 93 1017.0
20260506135222 11 27 3.2 3.2 0.00 0.00 0.00 93 1017.1
20260506134719 11 70 1.6 4.8 0.00 0.00 0.00 93 1017.1
20260506134215 11 46 3.2 4.8 0.00 0.00 0.00 93 1017.1
20260506133712 11 114 0.0 3.2 0.00 0.00 0.00 93 1017.3
20260506133209 11 47 1.6 3.2 0.00 0.00 0.00 93 1017.2
20260506132706 11 315 0.0 3.2 0.00 0.00 0.00 93 1017.2
20260506132203 11 19 0.0 3.2 0.00 0.00 0.00 93 1017.2
20260506131701 11 79 3.2 4.8 0.00 0.00 0.00 93 1017.2
20260506131156 11 100 1.6 3.2 0.00 0.00 0.00 93 1017.0
20260506130653 11 10 1.6 3.2 0.00 0.00 0.00 93 1016.9
20260506130151 11 36 0.0 3.2 0.00 0.00 0.00 93 1016.8
20260506125649 11 9 0.0 3.2 0.00 0.00 0.00 93 1016.9
20260506125146 11 104 1.6 1.6 0.00 0.00 0.00 93 1016.7
20260506124644 11 103 0.0 3.2 0.00 0.00 0.00 93 1016.8
20260506124142 11 89 0.0 3.2 0.00 0.00 0.00 94 1016.6
20260506123639 11 50 1.6 3.2 0.00 0.00 0.00 94 1016.5
20260506123138 11 68 1.6 3.2 0.00 0.00 0.00 94 1016.8
20260506122634 11 73 0.0 4.8 0.00 0.00 0.00 94 1016.9
20260506122132 11 92 1.6 3.2 0.00 0.00 0.00 94 1016.8
20260506121629 11 55 3.2 3.2 0.00 0.00 0.00 94 1016.7
20260506121125 11 51 1.6 3.2 0.00 0.00 0.00 94 1016.9
20260506120624 10 345 0.0 1.6 0.00 0.00 0.00 94 1016.7
20260506120121 10 110 0.0 3.2 0.00 0.00 0.00 94 1016.8
20260506115620 10 78 1.6 3.2 0.00 0.00 0.00 94 1016.6
20260506115117 10 66 0.0 3.2 0.00 0.00 0.00 94 1016.5
20260506114614 10 91 1.6 3.2 0.00 0.00 0.00 94 1016.5
20260506114112 10 46 0.0 3.2 0.00 0.00 0.00 94 1016.8
20260506113610 10 65 0.0 3.2 0.00 0.00 0.00 94 1016.5
20260506113107 10 39 1.6 3.2 0.00 0.00 0.00 94 1016.5
20260506112603 10 45 0.0 3.2 0.00 0.00 0.00 94 1016.4
20260506112101 10 357 0.0 1.6 0.00 0.00 0.00 94 1016.3
20260506111558 10 30 0.0 1.6 0.00 0.00 0.00 95 1016.4
20260506111055 10 15 1.6 1.6 0.00 0.00 0.00 95 1016.1
20260506110553 10 37 0.0 1.6 0.00 0.00 0.00 95 1016.1
20260506110050 10 89 0.0 1.6 0.00 0.00 0.00 95 1015.9
20260506105546 10 122 0.0 1.6 0.00 0.00 0.00 95 1015.8
20260506105044 10 4 0.0 3.2 0.00 0.00 0.00 95 1016.0
20260506104541 10 337 1.6 3.2 0.00 0.00 0.00 95 1015.9
20260506104039 10 138 0.0 1.6 0.00 0.00 0.00 95 1015.7
20260506103536 10 44 0.0 1.6 0.00 0.00 0.00 95 1015.7
20260506103032 10 45 0.0 3.2 0.00 0.00 0.00 95 1015.8
20260506102531 10 38 0.0 3.2 0.00 0.00 0.00 95 1015.7
20260506102028 10 44 0.0 3.2 0.00 0.00 0.00 95 1015.7
20260506101525 10 76 1.6 3.2 0.00 0.00 0.00 95 1015.8
20260506101022 10 72 1.6 3.2 0.00 0.00 0.00 95 1015.4
20260506100520 10 70 3.2 3.2 0.00 0.00 0.00 95 1015.5
20260506100018 10 85 1.6 4.8 0.00 0.00 0.00 95 1015.7
20260506095517 10 89 0.0 1.6 0.00 0.00 0.00 95 1015.7
20260506095012 10 79 3.2 3.2 0.00 0.00 0.00 95 1015.6
20260506094510 10 61 0.0 3.2 0.00 0.00 0.00 95 1015.5
20260506094008 10 79 1.6 4.8 0.00 0.00 0.00 95 1015.3
20260506093506 10 78 0.0 3.2 0.00 0.00 0.00 95 1015.4
20260506093003 10 103 1.6 3.2 0.00 0.00 0.00 95 1015.6
20260506092501 10 108 3.2 3.2 0.00 0.00 0.00 95 1015.5
20260506091957 10 73 1.6 4.8 0.00 0.00 0.00 95 1015.4
20260506091456 10 89 3.2 3.2 0.00 0.00 0.00 94 1015.5
20260506090952 10 65 3.2 3.2 0.00 0.00 0.00 94 1015.3
20260506090451 10 51 3.2 4.8 0.00 0.00 0.00 94 1015.4
20260506085946 10 103 0.0 3.2 0.00 0.00 0.00 94 1015.4
20260506085443 10 37 1.6 3.2 0.00 0.00 0.00 94 1015.4
20260506084940 10 113 0.0 3.2 0.00 0.00 0.00 94 1015.3
20260506084437 10 62 0.0 3.2 0.00 0.00 0.00 94 1015.0
20260506083933 10 57 0.0 3.2 0.00 0.00 0.00 94 1015.0
20260506083430 10 98 1.6 3.2 0.00 0.00 0.00 94 1015.0
20260506082927 10 122 1.6 3.2 0.00 0.00 0.00 94 1015.0
20260506082425 10 67 1.6 3.2 0.00 0.00 0.00 93 1015.0
20260506081920 10 80 0.0 4.8 0.00 0.00 0.00 93 1015.1
20260506081419 10 16 0.0 1.6 0.00 0.00 0.00 93 1014.9
20260506080915 10 76 1.6 3.2 0.00 0.00 0.00 93 1014.9
20260506080412 11 102 0.0 3.2 0.00 0.00 0.00 93 1014.8
20260506073356 11 74 3.2 3.2 0.00 0.00 0.00 92 1014.4
20260506072853 11 78 1.6 4.8 0.00 0.00 0.00 91 1014.5
20260506072351 11 68 3.2 4.8 0.00 0.00 0.00 91 1014.6
20260506071848 11 70 1.6 3.2 0.00 0.00 0.00 91 1014.6
20260506071346 11 68 1.6 3.2 0.00 0.00 0.00 91 1014.5
20260506070843 11 78 3.2 3.2 0.00 0.00 0.00 90 1014.6
20260506070340 11 85 3.2 3.2 0.00 0.00 0.00 90 1014.4
20260506062317 11 51 0.0 3.2 0.00 0.00 0.00 90 1014.6
20260506061813 12 354 0.0 3.2 0.00 0.00 0.00 90 1014.3
20260506061310 12 96 1.6 3.2 0.00 0.00 0.00 89 1014.3
20260506060809 12 100 4.8 4.8 0.00 0.00 0.00 89 1014.3
20260506060307 12 72 3.2 4.8 0.00 0.00 0.00 89 1014.1
20260506051237 13 96 3.2 4.8 0.00 0.00 0.00 87 1013.7
20260506050735 13 88 3.2 4.8 0.00 0.00 0.00 86 1013.7
20260506050232 13 85 3.2 4.8 0.00 0.00 0.00 86 1013.4
20260506044723 13 78 3.2 6.4 0.00 0.00 0.00 85 1013.6
20260506044221 13 81 3.2 4.8 0.00 0.00 0.00 84 1013.7
20260506043718 13 83 3.2 4.8 0.00 0.00 0.00 84 1013.5
20260506043216 13 82 3.2 4.8 0.00 0.00 0.00 83 1013.4
20260506042714 14 64 3.2 3.2 0.00 0.00 0.00 83 1013.4
20260506042212 14 88 3.2 3.2 0.00 0.00 0.00 82 1013.3
20260506041710 14 106 1.6 4.8 0.00 0.00 0.00 82 1013.4
20260506041207 15 41 0.0 3.2 0.00 0.00 0.00 80 1013.0
20260506040704 15 53 0.0 3.2 0.00 0.00 0.00 79 1013.2
20260506040201 15 125 1.6 3.2 0.00 0.00 0.00 79 1013.0
20260506035658 15 128 0.0 3.2 0.00 0.00 0.00 78 1013.3
20260506035155 15 91 0.0 3.2 0.00 0.00 0.00 78 1013.0
20260506034651 15 116 1.6 3.2 0.00 0.00 0.00 78 1013.2
20260506034149 15 118 3.2 4.8 0.00 0.00 0.00 77 1013.1
20260506033646 15 117 0.0 3.2 0.00 0.00 0.00 76 1013.2
20260506033142 16 145 1.6 4.8 0.00 0.00 0.00 75 1012.9
20260506032640 16 148 1.6 9.7 0.00 0.00 0.00 74 1012.9
20260506032137 16 145 1.6 4.8 0.00 0.00 0.00 74 1013.0
20260506031633 16 329 0.0 3.2 0.00 0.00 0.00 72 1012.9
20260506031130 17 157 0.0 4.8 0.00 0.00 0.00 72 1012.8
20260506030629 17 139 3.2 4.8 0.00 0.00 0.00 71 1012.7
20260506030126 17 142 1.6 4.8 0.00 0.00 0.00 69 1012.7
20260506025623 18 326 0.0 3.2 0.00 0.00 0.00 68 1012.7
20260506025119 18 60 0.0 6.4 0.00 0.00 0.00 68 1012.7
20260506024617 18 322 0.0 4.8 0.00 0.00 0.00 68 1012.8
20260506024112 18 161 0.0 4.8 0.00 0.00 0.00 66 1012.6
20260506023609 18 32 0.0 3.2 0.00 0.00 0.00 66 1012.7
20260506023106 18 29 3.2 4.8 0.00 0.00 0.00 67 1012.7
20260506022603 18 58 0.0 8.0 0.00 0.00 0.00 66 1012.6
20260506022101 18 32 1.6 6.4 0.00 0.00 0.00 65 1012.6
20260506021558 18 336 0.0 1.6 0.00 0.00 0.00 66 1012.8
20260506021055 18 142 3.2 4.8 0.00 0.00 0.00 67 1012.8
20260506020553 18 31 3.2 4.8 0.00 0.00 0.00 64 1012.8
20260506020050 18 44 0.0 3.2 0.00 0.00 0.00 65 1012.7
20260506015548 18 10 1.6 3.2 0.00 0.00 0.00 66 1012.7
20260506015044 18 52 1.6 8.0 0.00 0.00 0.00 66 1012.7
20260506014542 18 8 1.6 6.4 0.00 0.00 0.00 64 1012.5
20260506014037 18 148 4.8 4.8 0.00 0.00 0.00 64 1012.8
20260506013536 18 97 0.0 6.4 0.00 0.00 0.00 65 1012.5
20260506013032 19 141 0.0 4.8 0.00 0.00 0.00 64 1012.6
20260506012528 19 218 3.2 6.4 0.00 0.00 0.00 63 1012.6
20260506012025 20 91 0.0 9.7 0.00 0.00 0.00 63 1012.5
20260506011523 19 84 0.0 3.2 0.00 0.00 0.00 64 1012.8
20260506011020 19 242 1.6 8.0 0.00 0.00 0.00 63 1012.6
20260506010519 19 359 0.0 8.0 0.00 0.00 0.00 64 1012.9
20260506010015 20 261 0.0 3.2 0.00 0.00 0.00 63 1012.7
20260506005512 19 152 3.2 8.0 0.00 0.00 0.00 64 1012.7
20260506005008 19 47 0.0 3.2 0.00 0.00 0.00 63 1012.7
20260506004505 19 165 4.8 8.0 0.00 0.00 0.00 64 1012.8
20260506004001 20 173 3.2 6.4 0.00 0.00 0.00 63 1012.9